Weather History for KBHB - January, 2013

Change the Weather History Date:

Friday, January 25, 2013

  Actual Average Record
Temperature  
Mean Temperature 10 °F -  
Max Temperature 19 °F 33 °F 53 °F (1953)
Min Temperature 1 °F 18 °F -9 °F (2004)
Degree Days  
Heating Degree Days 55    
Moisture  
Dew Point -2 °F    
Average Humidity 58    
Maximum Humidity 72    
Minimum Humidity 39    
Precipitation  
Precipitation 0.00 in - - ()
Sea Level Pressure  
Sea Level Pressure 30.07 in    
Wind  
Wind Speed 8 mph (WNW)    
Max Wind Speed 16 mph    
Max Gust Speed 24 mph    
Visibility 10 miles    
Events      
Averages and records for this station are not official NWS values.
T = Trace of Precipitation, MM = Missing Value Source: NWS Daily Summary

Daily Weather History Graph

Daily Weather History Graph

Search for Another Location

Airport or City:

Trip Planner

Search our weather history database for the weather conditions in past years. The results will help you decide how hot, cold, wet, or windy it might be!

Date:

Astronomy

Jan. 25, 2013 Rise Set
Actual Time 6:58 AM EST 4:33 PM EST
Civil Twilight 6:27 AM EST 5:04 PM EST
Nautical Twilight 5:52 AM EST 5:40 PM EST
Astronomical Twilight 5:17 AM EST 6:14 PM EST
Moon 3:27 PM EST (1/25) 5:36 AM EST (1/25)
Length of Visible Light 10h 37m
Length of Day
9h 34m
Waxing Gibbous, 98% of the Moon is Illuminated
Jan 25
Waxing Gibbous
Jan 26
Full
Feb 3
Last Quarter
Feb 10
New
Feb 17
First Quarter

Hourly Weather History & Observations

Time (EST) Temp. Windchill Dew Point Humidity Pressure Visibility Wind Dir Wind Speed Gust Speed Precip Events Conditions
12:15 AM 1.4 °F -13.5 °F -7.6 °F 66% 30.02 in 10.0 mi WNW 9.2 mph 18.4 mph N/A   Clear
12:35 AM 1.4 °F -14.5 °F -7.6 °F 66% 30.02 in 10.0 mi WNW 10.4 mph 16.1 mph N/A   Clear
12:55 AM 1.4 °F -11.3 °F -7.6 °F 66% 30.02 in 10.0 mi WNW 6.9 mph - N/A   Clear
1:15 AM 1.4 °F -12.5 °F -7.6 °F 66% 30.02 in 10.0 mi WNW 8.1 mph 16.1 mph N/A   Clear
1:35 AM 1.4 °F -12.5 °F -7.6 °F 66% 30.02 in 10.0 mi NW 8.1 mph - N/A   Clear
1:55 AM 1.4 °F -9.9 °F -7.6 °F 66% 30.03 in 10.0 mi WNW 5.8 mph - N/A   Clear
2:15 AM 1.4 °F -11.3 °F -7.6 °F 66% 30.03 in 10.0 mi WNW 6.9 mph 17.3 mph N/A   Clear
2:35 AM 1.4 °F -11.3 °F -7.6 °F 66% 30.04 in 10.0 mi NW 6.9 mph 16.1 mph N/A   Clear
2:55 AM 3.2 °F -12.2 °F -7.6 °F 61% 30.04 in 10.0 mi NW 10.4 mph - N/A   Clear
3:15 AM 3.2 °F -9.1 °F -7.6 °F 61% 30.05 in 10.0 mi NW 6.9 mph 21.9 mph N/A   Clear
3:35 AM 3.2 °F -13.9 °F -5.8 °F 66% 30.05 in 10.0 mi WNW 12.7 mph 20.7 mph N/A   Clear
3:55 AM 3.2 °F -10.3 °F -5.8 °F 66% 30.05 in 10.0 mi NW 8.1 mph 16.1 mph N/A   Clear
4:15 AM 3.2 °F -11.3 °F -5.8 °F 66% 30.07 in 10.0 mi WNW 9.2 mph - N/A   Clear
4:35 AM 3.2 °F -9.1 °F -5.8 °F 66% 30.07 in 10.0 mi WNW 6.9 mph 19.6 mph N/A   Clear
4:55 AM 3.2 °F -9.1 °F -5.8 °F 66% 30.07 in 10.0 mi WNW 6.9 mph 16.1 mph N/A   Clear
5:16 AM 3.2 °F -10.3 °F -5.8 °F 66% 30.06 in 10.0 mi NW 8.1 mph 16.1 mph N/A   Clear
5:35 AM 3.2 °F -10.3 °F -5.8 °F 66% 30.07 in 10.0 mi WNW 8.1 mph - N/A   Clear
5:55 AM 3.2 °F -11.3 °F -5.8 °F 66% 30.07 in 10.0 mi WNW 9.2 mph 20.7 mph N/A   Clear
6:36 AM 3.2 °F -11.3 °F -4.0 °F 72% 30.08 in 10.0 mi NW 9.2 mph 18.4 mph N/A   Clear
6:55 AM 3.2 °F -6.2 °F -4.0 °F 72% 30.08 in 10.0 mi NW 4.6 mph - N/A   Clear
7:15 AM 3.2 °F -9.1 °F -4.0 °F 72% 30.09 in 10.0 mi NW 6.9 mph - N/A   Clear
7:35 AM 3.2 °F -10.3 °F -4.0 °F 72% 30.11 in 10.0 mi NW 8.1 mph - N/A   Clear
7:55 AM 5.0 °F -9.1 °F -4.0 °F 66% 30.10 in 10.0 mi WNW 9.2 mph 18.4 mph N/A   Clear
8:35 AM 6.8 °F -4.8 °F -2.2 °F 67% 30.11 in 10.0 mi WNW 6.9 mph 21.9 mph N/A   Clear
8:55 AM 6.8 °F -5.9 °F -2.2 °F 67% 30.12 in 10.0 mi NW 8.1 mph 19.6 mph N/A   Clear
9:15 AM 8.6 °F -5.5 °F -2.2 °F 62% 30.12 in 10.0 mi WNW 10.4 mph - N/A   Clear
9:35 AM 8.6 °F -8.9 °F -2.2 °F 62% 30.12 in 10.0 mi NW 16.1 mph 23.0 mph N/A   Clear
9:55 AM 10.4 °F -6.0 °F -2.2 °F 57% 30.13 in 10.0 mi NW 15.0 mph 24.2 mph N/A   Clear
10:15 AM 10.4 °F -1.5 °F -0.4 °F 62% 30.13 in 10.0 mi WNW 8.1 mph 23.0 mph N/A   Clear
10:35 AM 12.2 °F -2.5 °F -0.4 °F 57% 30.12 in 10.0 mi NW 12.7 mph 20.7 mph N/A   Clear
10:55 AM 12.2 °F 1.7 °F -0.4 °F 57% 30.11 in 10.0 mi NW 6.9 mph 21.9 mph N/A   Clear
11:15 AM 14.0 °F 0.5 °F -0.4 °F 53% 30.09 in 10.0 mi WNW 11.5 mph 24.2 mph N/A   Clear
11:35 AM 15.8 °F 2.7 °F -0.4 °F 49% 30.08 in 10.0 mi NNW 11.5 mph 18.4 mph N/A   Clear
11:55 AM 15.8 °F 1.4 °F -0.4 °F 49% 30.08 in 10.0 mi NW 13.8 mph 21.9 mph N/A   Clear
12:15 PM 17.6 °F 2.7 °F -0.4 °F 45% 30.07 in 10.0 mi NW 16.1 mph 23.0 mph N/A   Clear
12:35 PM 17.6 °F 5.7 °F -0.4 °F 45% 30.07 in 10.0 mi West 10.4 mph 19.6 mph N/A   Clear
12:55 PM 17.6 °F 5.7 °F -0.4 °F 45% 30.07 in 10.0 mi WNW 10.4 mph 20.7 mph N/A   Clear
1:15 PM 17.6 °F 5.0 °F -0.4 °F 45% 30.06 in 10.0 mi NW 11.5 mph 18.4 mph N/A   Clear
1:36 PM 17.6 °F 5.0 °F -0.4 °F 45% 30.06 in 10.0 mi West 11.5 mph 18.4 mph N/A   Clear
1:55 PM 17.6 °F 5.7 °F -0.4 °F 45% 30.06 in 10.0 mi West 10.4 mph 16.1 mph N/A   Clear
2:15 PM 19.4 °F 5.0 °F -0.4 °F 42% 30.05 in 10.0 mi West 16.1 mph 20.7 mph N/A   Clear
2:35 PM 19.4 °F 8.6 °F -0.4 °F 42% 30.05 in 10.0 mi WNW 9.2 mph 17.3 mph N/A   Clear
2:55 PM 19.4 °F 8.6 °F -0.4 °F 42% 30.06 in 10.0 mi WNW 9.2 mph 17.3 mph N/A   Clear
3:15 PM 19.4 °F 11.5 °F -0.4 °F 42% 30.07 in 10.0 mi West 5.8 mph - N/A   Clear
3:35 PM 19.4 °F 7.2 °F -2.2 °F 39% 30.07 in 10.0 mi West 11.5 mph 16.1 mph N/A   Clear
3:55 PM 19.4 °F 14.3 °F -0.4 °F 42% 30.07 in 10.0 mi WNW 3.5 mph - N/A   Clear
4:16 PM 17.6 °F 7.3 °F -0.4 °F 45% 30.07 in 10.0 mi West 8.1 mph - N/A   Clear
4:35 PM 17.6 °F 6.4 °F -0.4 °F 45% 30.08 in 10.0 mi WNW 9.2 mph - N/A   Clear
4:55 PM 17.6 °F 8.2 °F -0.4 °F 45% 30.07 in 10.0 mi WNW 6.9 mph - N/A   Clear
5:15 PM 15.8 °F 10.2 °F -0.4 °F 49% 30.07 in 10.0 mi West 3.5 mph - N/A   Clear
5:35 PM 15.8 °F 7.2 °F -0.4 °F 49% 30.08 in 10.0 mi West 5.8 mph - N/A   Clear
5:55 PM 15.8 °F 7.2 °F -0.4 °F 49% 30.08 in 10.0 mi WNW 5.8 mph - N/A   Clear
6:15 PM 15.8 °F 10.2 °F -0.4 °F 49% 30.09 in 10.0 mi WNW 3.5 mph - N/A   Clear
6:35 PM 15.8 °F 10.2 °F -0.4 °F 49% 30.09 in 10.0 mi WNW 3.5 mph - N/A   Clear
7:15 PM 12.2 °F 4.3 °F 1.4 °F 62% 30.09 in 10.0 mi West 4.6 mph - N/A   Clear
7:35 PM 14.0 °F - 1.4 °F 57% 30.10 in 10.0 mi Calm Calm - N/A   Clear
7:55 PM 14.0 °F - 1.4 °F 57% 30.10 in 10.0 mi Calm Calm - N/A   Clear
8:15 PM 14.0 °F - 1.4 °F 57% 30.10 in 10.0 mi Calm Calm - N/A   Clear
8:35 PM 14.0 °F - 1.4 °F 57% 30.08 in 10.0 mi Calm Calm - N/A   Clear
8:55 PM 12.2 °F 4.3 °F 1.4 °F 62% 30.08 in 10.0 mi NW 4.6 mph - N/A   Clear
9:15 PM 12.2 °F - -0.4 °F 57% 30.08 in 10.0 mi Calm Calm - N/A   Clear
9:35 PM 12.2 °F - -0.4 °F 57% 30.07 in 10.0 mi Calm Calm - N/A   Partly Cloudy
9:55 PM 12.2 °F 6.1 °F 1.4 °F 62% 30.07 in 10.0 mi NNW 3.5 mph - N/A   Scattered Clouds
10:15 PM 12.2 °F - 1.4 °F 62% 30.06 in 10.0 mi Calm Calm - N/A   Clear
10:35 PM 10.4 °F 4.0 °F 1.4 °F 67% 30.06 in 10.0 mi North 3.5 mph - N/A   Clear
10:55 PM 10.4 °F - 1.4 °F 67% 30.07 in 10.0 mi Calm Calm - N/A   Mostly Cloudy
11:15 PM 10.4 °F - 1.4 °F 67% 30.07 in 10.0 mi Calm Calm - N/A   Mostly Cloudy
11:35 PM 10.4 °F - -0.4 °F 62% 30.07 in 10.0 mi Calm Calm - N/A   Mostly Cloudy
11:55 PM 10.4 °F - -0.4 °F 62% 30.06 in 10.0 mi Calm Calm - N/A   Overcast